Eden Prairie, MN

1:00 PM CDT on September 28, 2016 (GMT -0500)
Flying Cloud

Weather History for KFCM - October, 2013

Change the Weather History Date:

Tuesday, October 22, 2013

  Actual Average Record
Temperature  
Mean Temperature 32 °F -  
Max Temperature 41 °F 54 °F 70 °F (2003)
Min Temperature 25 °F 37 °F 25 °F (2006)
Degree Days  
Heating Degree Days 33    
Moisture  
Dew Point 28 °F    
Average Humidity 76    
Maximum Humidity 92    
Minimum Humidity 63    
Precipitation  
Precipitation 0.00 in - - ()
Sea Level Pressure  
Sea Level Pressure 30.01 in    
Wind  
Wind Speed 2 mph (NW)    
Max Wind Speed 8 mph    
Max Gust Speed -    
Visibility 10 miles    
Events Rain , Snow    
Averages and records for this station are not official NWS values.
T = Trace of Precipitation, MM = Missing Value Source: NWS Daily Summary

Daily Weather History Graph

Daily Weather History Graph

Search for Another Location

Airport or City:

Trip Planner

Search our weather history database for the weather conditions in past years. The results will help you decide how hot, cold, wet, or windy it might be!

Date:

Astronomy

Oct. 22, 2013 Rise Set
Actual Time 7:38 AM CDT 6:16 PM CDT
Civil Twilight 7:08 AM CDT 6:46 PM CDT
Nautical Twilight 6:34 AM CDT 7:20 PM CDT
Astronomical Twilight 6:00 AM CDT 7:54 PM CDT
Moon 8:51 PM CDT (10/22) 11:14 AM CDT (10/22)
Length of Visible Light 11h 37m
Length of Day
10h 38m
Waning Gibbous, 86% of the Moon is Illuminated
Oct 22
Waning Gibbous
Oct 26
Last Quarter
Nov 3
New
Nov 9
First Quarter
Nov 17
Full

Hourly Weather History & Observations

Time (CDT) Temp. Windchill Dew Point Humidity Pressure Visibility Wind Dir Wind Speed Gust Speed Precip Events Conditions
12:53 AM 28.0 °F - 24.1 °F 85% 29.98 in 10.0 mi Calm Calm - N/A   Clear
1:53 AM 28.9 °F - 24.1 °F 82% 29.99 in 10.0 mi Calm Calm - N/A   Clear
2:53 AM 27.0 °F - 23.0 °F 85% 29.99 in 10.0 mi Calm Calm - N/A   Clear
3:53 AM 26.1 °F 21.9 °F 21.9 °F 84% 29.99 in 10.0 mi WSW 3.5 mph - N/A   Clear
4:53 AM 25.0 °F 20.7 °F 23.0 °F 92% 29.99 in 10.0 mi WSW 3.5 mph - N/A   Clear
5:53 AM 25.0 °F - 23.0 °F 92% 29.99 in 10.0 mi Calm Calm - N/A   Clear
6:53 AM 26.1 °F - 24.1 °F 92% 30.00 in 10.0 mi Calm Calm - N/A   Mostly Cloudy
7:53 AM 26.1 °F - 24.1 °F 92% 30.01 in 10.0 mi Calm Calm - N/A   Mostly Cloudy
8:53 AM 30.9 °F - 28.0 °F 89% 30.01 in 10.0 mi Calm Calm - N/A   Overcast
9:53 AM 34.0 °F - 30.9 °F 89% 30.03 in 10.0 mi Calm Calm - N/A   Overcast
10:06 AM 35.6 °F - 30.2 °F 81% 29.99 in 10.0 mi Calm Calm - N/A   Overcast
10:53 AM 37.0 °F 34.5 °F 30.0 °F 76% 30.02 in 10.0 mi North 3.5 mph - N/A   Overcast
11:53 AM 39.0 °F 36.8 °F 28.9 °F 67% 30.02 in 10.0 mi WNW 3.5 mph - N/A   Mostly Cloudy
12:20 PM 39.2 °F 34.2 °F 28.4 °F 65% 29.99 in 10.0 mi NNW 6.9 mph - N/A   Overcast
12:34 PM 39.2 °F 35.0 °F 28.4 °F 65% 29.99 in 10.0 mi NNW 5.8 mph - N/A   Overcast
12:44 PM 39.2 °F 35.0 °F 28.4 °F 65% 29.99 in 10.0 mi NNW 5.8 mph - N/A   Overcast
12:53 PM 39.0 °F 34.8 °F 28.9 °F 67% 30.01 in 10.0 mi NW 5.8 mph - N/A   Overcast
1:35 PM 39.2 °F 35.0 °F 28.4 °F 65% 29.98 in 10.0 mi North 5.8 mph - N/A   Overcast
1:53 PM 39.9 °F 36.7 °F 28.0 °F 63% 30.01 in 10.0 mi North 4.6 mph - N/A   Overcast
2:07 PM 39.2 °F 34.2 °F 28.4 °F 65% 29.98 in 10.0 mi NW 6.9 mph - N/A   Overcast
2:53 PM 39.9 °F 34.5 °F 28.0 °F 63% 30.01 in 10.0 mi WNW 8.1 mph - N/A   Overcast
3:53 PM 39.9 °F 35.1 °F 28.0 °F 63% 30.02 in 10.0 mi WNW 6.9 mph - N/A   Overcast
4:53 PM 39.9 °F 36.7 °F 28.0 °F 63% 30.03 in 10.0 mi West 4.6 mph - N/A   Overcast
5:53 PM 39.0 °F 36.8 °F 28.0 °F 65% 30.04 in 10.0 mi WNW 3.5 mph - N/A   Overcast
6:53 PM 37.9 °F 35.5 °F 28.9 °F 70% 30.04 in 10.0 mi West 3.5 mph - N/A   Overcast
7:53 PM 39.0 °F - 30.0 °F 70% 30.04 in 10.0 mi Calm Calm - 0.00 in Rain Light Rain
8:53 PM 37.0 °F - 32.0 °F 82% 30.04 in 10.0 mi Calm Calm - 0.00 in   Overcast
9:53 PM 37.0 °F 33.3 °F 32.0 °F 82% 30.05 in 10.0 mi NW 4.6 mph - N/A   Overcast
10:53 PM 37.0 °F 33.3 °F 30.9 °F 79% 30.05 in 8.0 mi NNW 4.6 mph - 0.00 in Snow Light Snow
11:53 PM 37.0 °F 32.4 °F 30.9 °F 79% 30.04 in 10.0 mi WNW 5.8 mph - 0.00 in   Overcast